Theta_e
311 308 309 307 308 308 306 302 292 293 293 286 286 288 285 291 290 289 289 290 289 292 293 293 293 292 291 291 292 293 293 292 293 290 290 298 303 303 305 305 305 307 309 307 308 310 314 314 315 317 318 318 318 319 318 317 317 317 316 315 315 315 315 315 315 316 316 316 316 316 316 316 316 317 318 318 318 318 318 318 318 318 318 317 317 317 317 317 318 318 318 318 318 318 317 316 315
306 308 309 309 308 311 297 299 293 289 290 286 285 288 287 289 289 288 289 289 291 292 293 294 294 293 293 293 293 293 294 295 295 296 298 301 302 303 304 306 305 306 307 308 308 310 313 313 314 316 317 318 319 318 318 317 317 317 316 315 315 315 315 314 314 315 314 315 314 314 314 314 315 315 316 317 317 317 317 317 317 317 317 316 316 317 317 316 316 315 315 316 316 316 316 315 314
308 307 307 309 304 302 298 299 290 289 287 283 284 287 289 288 288 289 290 291 292 293 293 293 293 292 292 292 292 291 290 294 295 296 298 300 298 302 305 307 306 308 308 309 309 308 312 312 312 314 316 318 318 318 317 317 317 316 316 316 315 315 314 315 314 314 314 314 314 314 314 314 314 314 315 316 317 317 316 316 316 316 316 317 316 316 316 315 315 314 315 315 315 315 315 314 313
310 309 306 307 298 303 295 294 291 289 286 285 285 288 288 289 289 290 291 291 292 293 291 291 291 293 292 290 291 293 292 294 297 298 297 299 302 304 305 306 307 307 309 310 309 308 310 314 311 312 314 316 317 317 318 317 317 317 316 316 315 315 314 314 314 313 313 313 313 313 313 313 313 314 315 315 315 316 315 315 315 316 316 315 315 315 315 315 315 314 314 314 315 314 314 313 311
308 308 309 306 302 294 294 290 289 290 285 287 285 288 289 290 289 290 290 291 292 292 291 291 292 293 294 292 293 292 293 296 297 298 299 302 304 304 306 307 306 307 306 308 307 308 311 313 311 311 312 315 316 316 316 316 316 316 315 315 315 315 314 314 313 313 313 312 313 313 313 312 313 313 314 313 315 315 315 315 315 315 314 314 314 314 315 315 314 313 313 312 313 313 313 312 311
307 305 306 304 295 297 297 290 288 285 286 288 287 288 290 291 290 290 291 291 293 293 292 291 291 291 292 294 295 294 297 294 299 298 300 301 303 305 306 308 306 305 306 307 307 307 310 315 311 311 311 313 315 316 315 315 315 315 315 314 314 314 314 314 313 313 312 312 313 313 313 313 313 313 313 313 313 315 315 314 314 314 314 314 314 314 314 314 313 312 312 312 312 312 312 312 311
304 306 303 301 298 299 290 288 286 286 286 288 289 289 290 290 291 290 290 291 292 292 292 291 292 292 291 294 295 297 300 299 298 301 303 306 306 305 306 307 306 305 305 307 308 308 310 312 313 311 310 311 313 314 314 315 315 314 314 313 313 313 313 313 313 313 313 312 313 312 313 312 312 312 312 313 313 313 313 314 314 313 313 313 312 313 313 312 312 312 312 311 311 311 311 310 310
310 304 301 297 293 294 288 287 287 289 286 289 290 290 291 291 291 290 290 290 290 291 291 292 292 291 291 293 292 298 300 299 302 302 303 303 305 305 307 306 305 304 305 307 308 309 309 310 313 312 311 310 311 312 313 314 313 313 312 312 312 312 312 311 313 313 312 312 312 311 311 311 311 311 310 312 312 312 313 313 313 313 312 312 312 312 312 311 311 311 311 311 311 311 310 310 309
304 301 301 298 291 292 289 287 286 288 288 289 290 291 292 292 291 290 290 290 291 291 291 292 293 290 292 292 293 297 298 300 301 301 304 303 303 306 306 306 304 304 304 306 308 309 310 308 312 313 311 310 310 310 311 312 312 312 311 312 312 311 311 310 311 312 311 311 311 310 309 309 309 309 309 310 311 311 312 311 311 312 311 311 311 311 311 310 311 311 311 310 310 309 310 310 309
301 302 295 295 295 288 287 287 288 287 288 290 290 290 291 292 290 290 290 290 291 291 292 292 292 290 291 291 293 295 298 301 300 301 302 303 305 306 306 306 305 304 304 305 307 309 310 311 311 312 311 310 311 309 309 311 311 311 311 311 311 311 310 309 309 309 310 309 309 309 307 307 308 307 308 307 309 309 309 311 311 312 312 312 311 311 312 311 311 311 311 310 309 308 308 308 308
298 299 297 296 292 289 288 286 287 288 288 290 290 292 292 292 291 290 290 291 292 291 291 291 289 290 291 292 295 299 299 299 299 300 302 303 306 306 305 306 306 306 304 306 307 309 308 310 310 311 312 310 311 310 309 309 310 310 311 311 310 309 309 308 307 307 307 308 307 308 306 304 305 305 306 305 307 308 307 308 311 311 310 310 310 311 311 311 310 310 310 309 308 307 307 307 307
297 297 300 294 292 290 288 287 287 288 289 290 290 292 293 291 290 289 290 289 291 291 291 292 291 294 290 292 294 297 298 298 300 302 303 304 304 305 305 305 306 306 306 307 308 308 309 310 311 311 308 309 309 310 309 308 308 309 310 310 309 309 309 308 306 305 305 306 305 306 304 303 303 304 303 304 304 306 305 305 308 309 309 308 309 309 309 309 309 309 309 308 307 306 305 305 305
300 300 297 293 289 290 289 288 287 288 288 289 290 291 293 291 290 291 291 291 291 291 291 294 293 293 290 292 296 297 296 299 301 303 303 303 304 305 307 305 306 306 307 309 308 307 310 309 309 309 310 308 309 311 309 307 306 307 308 309 309 308 307 307 305 304 303 303 303 304 303 301 300 302 302 302 301 303 304 303 305 307 307 307 307 307 308 308 308 308 307 307 306 305 304 303 303
299 298 299 288 290 289 290 288 288 287 288 291 292 291 292 291 292 292 292 290 291 290 293 294 293 294 292 293 294 295 297 300 301 303 302 303 303 304 306 304 306 306 307 308 307 307 309 309 308 310 310 309 309 308 308 306 305 305 306 307 308 307 306 305 305 303 301 301 301 301 301 298 298 299 300 300 300 300 302 302 302 305 306 305 305 306 306 307 307 306 306 305 304 303 302 300 300
297 297 295 291 288 289 289 288 288 289 289 291 291 291 291 292 291 291 292 290 292 294 294 295 295 292 291 292 293 296 298 299 300 303 302 302 302 303 305 305 305 307 307 306 306 307 306 308 309 310 310 309 309 308 309 308 304 304 305 305 307 305 305 304 303 302 300 298 299 298 298 297 296 296 297 298 297 298 300 300 300 302 304 304 303 304 304 305 304 304 305 303 303 302 300 298 298
299 299 297 292 289 290 287 288 289 290 288 292 290 291 291 292 292 291 293 293 293 294 293 294 294 295 295 294 296 297 297 298 299 301 302 302 301 302 303 303 303 303 306 306 305 307 307 308 309 309 309 309 308 308 308 308 306 304 305 305 305 305 303 302 302 300 298 296 298 297 296 296 295 295 296 297 296 297 297 298 299 300 302 302 302 302 302 303 302 303 303 302 301 300 298 297 296
297 303 295 292 288 291 288 290 289 289 290 292 290 291 290 290 292 292 292 293 291 293 293 295 296 297 294 296 298 298 298 299 299 300 301 302 301 301 302 302 302 303 303 305 306 305 308 307 307 308 309 308 309 308 308 308 308 305 305 305 305 304 304 301 300 298 297 296 296 296 296 296 297 296 297 296 296 296 295 296 297 297 299 299 299 299 300 301 300 301 301 300 299 298 297 296 295
297 298 296 292 291 292 291 290 291 292 290 291 290 292 292 289 291 292 292 291 292 293 292 295 295 294 297 297 295 297 297 297 298 299 299 300 301 300 300 301 302 302 303 304 305 305 306 306 307 307 308 309 308 309 307 307 307 305 307 308 307 306 304 301 302 302 297 299 295 297 298 296 295 295 296 296 296 295 294 294 295 296 297 297 297 297 298 298 298 299 298 298 297 297 296 296 295
297 295 297 290 292 290 293 293 292 292 292 292 292 291 292 292 292 292 291 292 292 291 293 294 294 297 298 298 297 297 298 298 298 299 299 299 300 299 300 302 302 302 303 304 305 305 306 306 307 306 307 308 309 308 308 308 307 307 307 307 307 304 304 304 304 302 302 300 298 298 297 297 296 296 295 294 294 293 293 293 293 294 294 294 295 295 296 296 296 297 296 296 296 294 295 295 295
291 299 292 292 292 290 291 292 292 292 294 291 291 290 290 293 292 293 291 292 291 291 293 293 293 295 296 298 298 297 298 298 299 299 299 300 300 300 300 300 302 302 302 304 305 305 305 305 305 306 307 308 307 307 308 307 307 307 307 307 307 306 306 304 304 303 302 301 299 298 298 298 297 296 293 293 293 295 295 293 292 293 293 293 293 295 294 294 295 295 295 295 294 294 295 294 294
293 296 292 291 291 291 291 291 291 291 294 293 292 289 289 291 292 292 292 291 292 293 295 295 295 295 297 298 298 298 297 298 299 300 300 301 301 302 301 301 302 302 304 304 304 304 304 304 305 306 306 307 307 307 307 307 308 306 307 307 306 306 306 305 304 304 303 302 300 299 299 298 298 297 297 296 296 295 295 296 295 295 294 295 293 295 295 295 295 295 295 295 295 295 294 294 295
293 288 289 291 290 291 289 290 289 290 289 293 290 290 291 292 290 290 292 291 294 295 297 297 297 297 297 296 297 297 297 298 298 298 299 300 301 302 302 302 302 302 302 301 302 303 304 304 305 305 306 306 306 307 307 307 307 306 306 306 306 306 306 305 304 303 302 302 301 299 298 299 298 298 298 297 297 296 295 295 295 295 294 295 294 295 294 295 294 294 295 295 294 294 295 295 295
291 289 289 291 288 291 289 289 287 289 290 291 290 293 291 291 292 292 292 292 296 296 297 297 297 297 296 296 296 295 297 297 298 298 299 300 301 301 301 301 301 301 302 302 303 303 303 303 304 305 304 305 306 306 306 306 306 307 307 307 306 306 306 305 304 303 303 303 302 300 299 299 299 298 298 298 297 297 296 296 295 295 295 294 294 294 294 295 294 294 294 294 294 295 295 295 295
295 289 289 288 290 290 287 289 286 287 290 291 291 290 290 290 289 290 289 294 297 297 294 295 294 292 293 294 295 296 297 297 298 299 299 300 301 302 303 301 301 302 302 302 303 303 304 303 304 304 304 304 306 307 305 305 306 307 307 306 305 305 305 305 304 304 304 302 302 300 299 299 298 298 299 298 298 298 297 297 296 296 295 295 294 294 294 294 294 294 295 295 294 295 295 295 295
291 289 288 288 289 288 287 287 287 287 288 288 289 289 291 291 290 288 290 294 296 297 296 293 292 292 292 294 295 295 297 298 298 299 300 300 300 301 301 301 301 301 300 301 303 303 303 304 303 302 302 304 305 306 305 305 306 307 306 306 306 307 306 306 305 305 303 302 302 302 300 299 299 299 299 298 298 298 298 297 296 296 296 295 295 295 295 294 294 294 294 294 294 295 295 295 295
290 289 290 289 289 289 288 288 287 288 290 288 289 290 291 290 288 288 293 296 294 292 291 293 292 292 293 293 295 295 296 297 298 298 298 300 299 298 298 299 300 299 300 301 302 303 304 303 302 302 302 303 304 305 305 305 306 306 307 307 306 306 306 306 306 304 303 302 302 302 301 300 299 298 299 298 297 298 298 298 297 297 296 296 295 295 294 294 294 294 294 294 294 294 294 295 294
290 290 291 290 288 289 289 289 289 288 290 289 289 291 291 289 288 292 295 293 290 292 292 292 291 292 294 294 295 295 295 296 297 299 298 298 298 298 299 300 300 300 301 301 302 303 304 303 303 303 303 304 305 304 305 306 306 306 307 307 307 306 306 306 305 304 304 303 302 302 301 300 299 299 298 298 298 297 298 298 297 297 296 296 295 295 295 294 294 294 294 293 293 294 294 294 294
291 291 290 289 289 290 289 289 289 291 290 288 290 290 290 290 289 291 295 291 291 292 293 292 291 293 294 295 294 296 295 296 298 297 296 297 298 299 299 300 300 301 301 301 303 304 303 303 302 303 303 303 304 303 305 305 306 306 307 306 306 306 306 305 304 304 303 303 303 302 301 300 299 299 299 299 298 297 297 297 297 297 296 296 296 295 294 294 294 294 294 294 294 294 294 295 295
289 289 289 288 289 290 290 290 290 289 290 289 290 288 288 288 289 295 295 290 291 291 293 293 293 293 294 295 294 294 295 296 296 296 297 299 300 301 300 302 301 302 303 303 303 304 302 303 302 302 303 303 303 303 304 305 306 306 306 306 306 306 305 304 304 304 304 304 303 302 301 300 300 299 299 299 298 298 298 297 297 297 297 296 295 295 294 295 295 294 295 295 295 295 295 295 295
289 291 291 289 289 290 289 289 289 288 290 289 289 289 295 291 292 296 291 291 291 291 293 295 294 294 294 293 293 294 295 295 295 297 298 299 300 300 300 301 301 301 302 303 302 301 302 302 302 302 303 302 304 303 304 305 306 306 306 306 306 305 304 303 304 304 304 303 303 302 301 301 299 299 299 299 298 297 298 297 297 297 297 296 295 295 294 294 294 294 294 294 295 294 294 295 294
292 289 291 292 290 290 289 289 290 290 290 291 291 289 293 296 295 296 291 289 291 294 296 296 295 294 294 294 294 295 296 297 297 297 298 299 299 300 299 300 300 301 301 301 302 302 302 302 301 300 302 303 303 303 304 304 305 305 305 305 305 305 304 304 303 304 303 303 302 301 301 300 300 300 299 298 298 298 297 297 297 297 297 295 295 295 294 294 294 293 293 293 293 294 294 295 294
290 291 292 291 291 291 289 289 289 290 291 291 291 289 292 295 296 294 291 289 290 293 296 296 294 294 294 294 294 295 296 297 296 296 297 297 298 298 299 299 300 300 300 301 302 302 301 302 302 302 302 303 304 304 305 305 305 305 305 304 304 305 303 304 303 303 303 302 301 302 301 301 300 300 299 299 298 298 297 297 297 297 296 295 295 294 294 294 294 294 294 292 292 293 293 294 294
292 292 292 291 290 291 290 288 289 288 288 292 291 290 292 295 294 291 290 290 290 292 294 296 295 295 294 294 294 295 296 297 297 296 297 297 298 298 298 299 300 300 300 300 300 301 301 302 301 302 301 303 303 303 305 305 304 304 303 304 303 304 303 303 303 303 302 301 301 300 301 300 300 300 299 299 298 298 297 297 297 297 296 295 294 294 294 294 293 293 294 293 292 292 293 293 293
293 292 292 290 289 291 291 287 288 289 288 289 290 288 292 295 296 293 290 289 291 292 294 296 296 297 296 296 295 294 295 297 297 299 299 298 298 297 297 299 299 299 299 300 300 300 300 301 302 302 302 302 302 303 303 304 304 303 303 303 303 302 303 303 303 302 301 301 301 300 301 300 299 300 299 298 297 298 298 297 297 296 295 294 294 294 294 294 293 293 292 294 293 292 293 293 292
291 292 292 290 287 286 289 290 288 288 288 288 290 289 290 293 296 297 297 294 293 293 294 295 295 295 295 295 294 294 295 296 297 300 300 298 297 297 297 298 298 299 298 298 299 299 299 300 301 301 301 301 301 301 302 303 302 302 303 303 302 302 302 302 302 301 301 301 301 301 301 300 299 299 299 298 297 297 297 297 297 296 295 295 294 294 294 294 293 293 292 293 293 293 292 293 291
291 291 290 289 291 291 291 289 287 287 289 289 289 290 293 295 296 297 297 295 293 293 294 293 293 293 293 294 294 295 295 296 299 300 299 297 297 297 297 297 297 298 298 297 297 298 298 299 300 300 300 300 301 300 301 301 301 301 301 301 301 301 302 301 301 301 301 300 301 300 300 300 299 299 299 298 297 297 297 297 296 296 295 294 294 294 295 294 293 292 293 292 292 293 293 292 292
287 289 290 289 289 292 288 287 287 287 287 290 291 291 290 291 293 295 297 294 292 292 292 293 294 294 295 295 294 295 296 297 301 299 298 298 298 297 297 297 297 297 296 296 296 297 297 298 299 299 300 300 299 300 300 300 301 301 301 301 301 303 302 302 301 301 301 301 301 300 300 299 299 298 298 298 297 296 296 297 296 295 295 294 294 294 294 293 292 292 292 292 291 292 293 292 292
289 291 292 291 290 291 290 289 288 289 288 291 287 289 291 293 296 297 298 295 294 294 294 295 295 296 296 296 297 297 297 298 298 297 297 297 297 297 297 297 297 296 298 297 296 297 298 298 297 299 300 299 299 299 301 301 302 302 302 303 302 302 302 301 301 301 301 301 300 300 299 299 299 299 298 298 297 297 297 296 296 296 295 294 294 294 292 292 292 292 291 292 292 291 292 291 291
289 292 292 291 291 290 289 286 288 288 288 291 290 289 292 295 297 298 297 296 296 296 296 297 296 297 297 296 296 297 297 298 298 298 298 297 298 298 297 298 299 298 300 300 299 299 298 298 298 298 299 299 300 300 301 301 302 303 301 302 301 302 302 302 302 302 301 300 300 300 299 299 299 298 298 297 297 297 297 296 296 296 295 294 293 293 293 292 292 291 291 291 292 293 292 291 290
292 293 292 290 289 289 290 289 286 288 288 289 289 288 292 295 297 296 294 293 294 294 293 294 294 295 297 297 297 297 297 298 299 299 299 298 298 298 299 300 301 300 300 300 299 298 298 298 298 299 299 299 300 300 300 302 302 302 302 301 301 301 301 300 300 299 299 299 299 299 299 299 299 298 298 298 297 297 297 296 296 295 295 294 294 294 293 292 291 291 291 291 291 292 292 291 290
290 291 291 290 289 289 287 290 289 288 287 286 288 291 294 296 296 298 295 290 290 293 292 292 293 293 295 295 294 295 295 297 299 299 299 298 297 298 300 302 302 301 302 303 303 301 299 299 300 299 299 299 299 300 300 301 300 299 300 299 299 299 299 299 299 299 299 299 299 299 299 299 298 298 298 298 297 297 297 296 296 295 295 294 294 293 293 293 292 292 291 290 290 290 291 290 291
290 287 288 288 287 287 288 288 288 291 290 287 287 289 292 295 296 295 297 295 297 295 294 297 297 296 294 293 295 296 296 296 297 298 301 301 299 300 300 301 301 302 302 303 302 302 301 302 301 300 300 299 299 300 301 300 300 299 299 299 298 298 299 299 299 300 300 299 299 300 298 298 298 298 298 298 297 296 296 296 295 295 294 293 293 294 293 292 291 291 291 291 290 289 289 290 290
289 288 286 286 286 286 287 287 290 288 286 289 287 287 287 296 295 297 295 293 296 299 297 298 298 297 296 296 297 297 297 297 297 296 297 297 298 298 299 301 302 302 303 302 301 300 300 301 302 301 301 301 300 300 301 300 300 300 300 300 301 301 300 302 302 301 301 300 300 298 298 298 298 297 297 297 297 296 296 295 295 295 294 294 293 293 292 292 292 291 291 290 290 290 289 290 289
289 285 286 286 286 287 287 287 289 288 289 289 289 290 287 288 296 295 292 292 297 299 300 300 299 299 297 297 297 298 298 297 299 299 298 298 299 299 299 300 302 302 303 301 301 300 301 301 301 301 301 301 300 300 300 301 300 300 300 300 301 301 301 301 299 299 299 299 298 298 298 298 297 297 297 296 296 296 295 295 294 294 293 293 293 293 293 292 292 291 290 290 290 290 289 289 289
288 285 286 287 286 287 286 288 288 287 286 287 288 290 286 287 295 295 293 296 298 299 300 301 301 301 299 300 298 298 299 298 298 299 300 299 299 299 299 301 303 302 301 301 301 301 300 300 300 300 300 300 300 299 299 300 301 301 301 301 300 301 301 301 299 299 298 298 298 297 297 297 296 296 296 296 295 295 294 295 294 293 293 293 292 293 292 291 291 291 290 289 289 289 289 289 288
286 286 285 286 286 286 287 288 289 287 286 286 287 287 286 289 296 297 294 294 297 298 300 300 301 300 301 300 300 299 298 298 297 296 298 299 299 299 299 301 301 302 301 301 300 299 299 300 299 300 300 300 300 299 299 300 300 300 300 300 300 301 300 299 299 298 298 298 298 297 297 297 296 295 295 295 294 294 294 294 293 293 293 292 292 293 291 291 290 290 290 290 289 289 289 289 288
286 287 287 288 288 287 287 287 287 287 285 286 285 285 285 284 294 295 296 296 297 298 299 300 301 300 299 299 300 301 299 298 298 297 296 297 297 297 298 299 301 301 300 299 300 299 300 299 300 300 300 299 299 299 299 299 300 300 300 300 300 301 300 299 298 297 297 297 297 297 297 296 296 295 295 294 294 294 293 293 293 293 293 292 292 292 291 291 291 290 290 289 289 289 289 288 288
288 290 289 289 287 286 288 287 287 285 285 285 284 284 285 284 290 298 298 296 294 296 296 298 300 301 301 301 299 298 296 297 297 297 297 297 296 297 298 299 300 300 299 299 300 300 299 300 299 300 299 298 299 299 299 300 299 300 300 300 300 301 300 299 299 298 298 297 298 297 296 295 294 294 294 294 293 293 293 293 293 292 292 292 292 292 291 291 291 290 290 290 289 289 288 288 288
289 288 289 286 285 286 284 286 283 285 284 285 284 284 283 284 291 295 297 298 299 298 297 298 299 299 300 300 299 297 297 296 296 297 298 298 298 300 299 300 300 300 299 299 299 299 299 299 299 299 299 299 298 298 299 300 299 299 299 299 300 300 299 299 300 300 299 298 298 297 295 295 294 293 293 293 293 293 293 292 292 292 292 292 291 291 291 290 290 290 290 289 289 289 288 288 288
289 289 288 286 282 279 277 282 279 282 286 283 285 284 283 290 293 297 296 299 299 298 298 299 298 297 298 298 298 295 297 297 297 297 298 299 300 301 301 301 300 300 300 300 300 299 299 299 299 299 300 299 298 297 298 298 299 300 299 299 299 299 298 299 299 299 299 299 298 297 296 295 294 294 293 293 293 293 293 293 293 292 292 291 291 291 290 290 290 290 289 289 288 288 288 288 287
288 287 288 287 285 282 277 281 281 282 284 284 283 282 285 285 292 295 296 297 297 296 295 295 295 294 294 294 294 294 295 296 298 297 298 299 299 300 301 301 301 301 300 300 300 299 299 299 299 298 299 297 297 297 298 298 298 298 298 299 299 299 299 298 299 299 298 297 297 296 296 295 295 294 293 293 292 292 292 291 292 291 291 291 290 290 290 290 290 290 289 289 288 288 288 287 287
287 288 288 287 285 288 284 283 283 281 282 283 282 285 291 292 297 297 297 295 295 294 294 293 294 295 294 294 296 298 298 298 298 298 299 298 299 300 300 300 300 300 300 300 300 300 299 299 299 299 299 298 297 297 297 298 298 297 297 297 298 298 298 298 298 297 297 297 296 295 294 294 294 293 292 291 291 292 291 291 291 291 290 290 290 290 289 289 289 289 288 288 287 288 287 287 287
286 287 288 287 286 287 281 277 274 275 280 282 287 286 291 294 295 295 296 295 298 295 296 296 297 296 295 296 299 299 298 299 299 299 299 299 299 299 299 300 300 299 299 300 300 300 299 299 299 298 298 298 297 297 297 297 297 296 296 297 297 297 297 297 297 296 295 295 295 294 293 292 292 292 291 291 290 291 291 290 290 289 289 289 289 289 289 289 289 288 287 287 287 287 287 287 286
286 286 287 286 285 285 286 283 281 282 279 283 283 284 286 286 288 297 296 295 298 298 298 296 299 298 298 301 301 300 300 299 299 298 298 298 299 300 299 299 300 300 300 300 300 300 300 300 299 298 297 296 296 296 296 295 295 296 296 296 296 297 297 297 296 294 294 293 293 292 292 291 291 291 290 290 290 289 289 289 289 288 288 289 288 288 288 288 288 287 287 287 287 287 286 286 286
287 285 288 286 285 285 285 282 277 277 277 280 283 283 283 286 290 294 295 295 296 297 298 298 299 299 299 300 300 301 300 300 299 299 299 299 298 299 299 299 299 299 299 300 301 300 299 298 299 299 298 297 297 296 296 295 295 296 295 295 295 295 295 295 294 294 293 292 291 291 290 290 290 289 289 289 289 288 288 288 288 287 287 287 287 287 287 287 287 286 286 286 286 286 285 284 285
285 285 287 285 285 286 284 285 284 282 279 277 281 281 285 291 292 293 294 296 296 296 297 299 299 298 298 299 300 301 303 303 302 301 300 300 300 300 299 299 299 299 298 299 299 299 297 297 296 297 297 297 296 295 295 294 294 294 294 294 294 294 293 293 293 292 291 291 291 290 290 289 289 289 289 289 288 288 288 287 287 286 286 286 286 286 286 286 285 285 285 285 285 284 284 284 284
284 285 285 285 286 286 286 283 283 284 281 280 279 280 287 295 293 293 295 296 297 296 296 298 299 300 299 299 299 300 300 301 302 302 301 301 300 300 299 299 299 299 299 298 298 297 297 297 296 296 295 294 294 295 294 294 293 293 293 292 292 292 292 292 291 291 291 290 290 290 289 289 289 288 288 288 287 287 287 286 286 286 285 285 285 284 285 285 284 284 284 284 284 284 283 283 284
286 288 287 288 285 284 281 282 282 280 282 279 277 280 287 294 291 295 296 296 295 295 294 296 298 298 299 300 300 299 299 300 300 300 300 300 299 299 299 299 299 298 298 297 297 296 296 296 296 296 295 295 294 294 293 294 293 292 292 292 291 291 291 291 290 290 290 290 289 289 289 288 288 288 288 287 287 286 286 286 285 285 284 284 284 284 284 284 284 283 283 284 284 283 283 283 283
Wind_Speed
4 2 2 1 2 2 3 7 4 5 5 9 8 1 5 2 2 4 4 4 4 2 1 1 2 3 4 4 5 4 2 4 4 4 5 3 1 2 2 2 3 3 3 2 3 3 4 7 8 9 10 10 11 10 11 11 11 11 11 11 11 11 11 12 12 12 12 12 12 13 14 14 15 15 15 16 16 16 16 16 16 16 16 17 16 17 17 17 17 17 17 17 18 18 18 18 18
3 2 3 3 3 4 5 5 7 7 7 11 8 3 4 2 3 3 4 1 4 3 1 2 3 2 2 2 2 2 2 0 4 3 1 2 1 2 4 5 4 4 2 1 2 3 3 6 8 9 9 9 10 10 10 11 11 11 11 11 10 10 11 11 12 12 13 13 13 13 13 14 15 15 15 15 16 16 16 16 16 16 16 16 17 17 17 17 17 17 18 18 18 17 18 18 18
4 3 3 2 11 7 4 3 6 6 9 10 5 6 1 4 3 3 3 4 5 6 4 4 1 2 3 4 5 4 5 1 1 2 1 2 3 5 6 6 5 4 3 1 2 2 2 6 8 8 9 9 9 10 10 10 10 10 10 10 10 10 10 11 11 11 12 12 12 12 12 13 14 15 15 15 15 15 15 15 16 16 16 17 16 16 16 17 17 17 17 17 17 18 18 18 18
3 6 3 2 4 2 4 4 7 6 10 8 7 3 3 5 6 6 3 4 4 3 0 3 3 2 4 4 1 1 1 2 2 2 3 5 1 5 6 7 6 4 3 2 2 1 3 5 7 8 8 9 9 9 10 10 10 10 10 10 10 10 10 11 11 11 11 11 12 12 12 12 13 14 14 15 15 15 15 15 16 16 16 16 16 16 16 16 16 16 16 17 17 17 18 18 18
8 6 8 2 2 6 3 4 4 2 9 2 7 4 4 3 6 3 4 2 3 4 2 1 2 2 2 3 1 2 4 4 3 4 1 2 2 4 6 6 5 5 4 3 2 1 2 5 6 7 8 9 9 9 9 10 10 10 10 10 10 10 10 9 10 10 10 10 11 12 12 12 12 13 14 14 15 15 15 15 15 15 16 16 16 16 16 16 16 16 16 16 16 17 17 17 18
9 11 10 6 6 2 3 7 8 10 6 3 8 6 5 4 4 2 3 4 3 5 4 4 3 1 3 1 1 2 2 2 4 5 3 3 5 5 6 6 5 4 3 2 2 2 2 5 5 6 7 8 9 9 9 10 10 10 9 9 10 9 9 10 10 10 11 10 11 11 12 12 12 12 13 13 14 14 14 14 15 15 15 15 15 15 15 15 16 15 15 15 15 16 16 16 16
2 3 5 8 7 1 8 9 9 8 6 4 7 7 5 4 2 2 3 4 3 4 3 2 1 2 3 2 3 6 2 2 4 3 5 4 4 6 7 6 5 5 4 3 2 2 1 4 5 5 6 8 8 9 9 9 9 9 9 9 9 9 9 9 10 10 10 10 10 11 11 11 11 12 12 13 13 14 14 14 14 14 14 14 15 15 14 15 15 15 14 15 15 15 15 15 15
3 2 3 5 6 6 10 9 8 4 4 3 3 5 4 4 3 3 3 3 4 3 4 2 3 4 3 1 2 5 3 4 3 2 2 2 4 7 8 7 6 5 5 3 3 2 1 4 5 4 5 6 7 8 8 8 8 8 9 9 9 10 10 10 10 10 10 10 10 10 11 11 11 11 11 12 12 13 14 13 13 14 14 14 14 14 14 14 14 14 14 14 14 14 14 14 15
7 6 2 5 9 5 9 8 7 4 6 2 3 3 2 1 2 2 3 2 2 3 2 4 4 4 4 3 3 4 4 6 6 3 3 4 6 8 6 8 6 4 5 4 3 3 3 2 5 4 4 5 6 7 7 7 8 8 8 9 9 10 10 10 10 10 10 10 10 10 10 11 11 11 11 11 12 12 13 13 13 13 13 14 14 14 14 14 14 14 14 14 14 14 14 14 14
4 4 3 4 6 13 9 5 5 3 4 2 4 4 4 3 4 4 4 3 1 1 0 2 3 6 2 3 3 4 3 5 4 5 7 7 7 8 8 9 8 5 5 4 4 4 3 3 5 5 3 4 4 5 6 6 7 8 8 9 9 9 10 10 10 10 9 9 10 10 10 11 11 11 11 11 11 11 12 13 13 13 13 13 13 13 14 14 14 14 14 14 14 14 14 14 14
3 4 2 3 7 10 8 6 6 5 5 2 3 4 3 2 3 3 4 4 1 2 2 3 4 7 3 2 2 4 3 3 6 9 9 9 7 8 9 8 7 6 5 5 4 4 4 4 3 6 4 3 4 4 5 6 7 7 8 8 8 9 9 9 10 10 9 9 9 9 10 10 10 10 11 11 11 11 11 12 13 12 12 12 13 13 13 13 13 14 14 14 14 14 14 14 14
3 1 2 7 5 8 7 9 7 5 3 3 3 5 3 4 3 3 5 5 5 6 5 8 1 5 4 2 3 4 3 6 9 6 8 8 8 10 9 6 7 7 7 5 5 6 5 5 4 3 4 3 3 3 4 5 6 7 6 7 8 8 8 8 9 9 9 9 9 9 9 10 10 10 10 11 11 11 11 12 12 12 12 12 12 13 13 13 13 14 14 14 14 14 15 14 14
2 1 5 6 3 5 8 10 6 6 4 6 6 4 4 5 6 2 3 4 2 4 5 8 2 2 3 3 4 2 5 8 9 7 6 8 8 7 7 6 6 7 7 6 7 7 7 6 5 4 3 3 4 2 4 5 5 5 6 6 6 7 7 7 8 8 9 9 8 8 8 9 9 10 10 10 11 11 11 11 12 12 12 12 12 12 13 13 13 14 14 14 14 15 15 14 14
2 2 1 8 2 7 6 6 6 6 3 6 3 5 5 4 3 3 4 5 6 5 3 1 2 2 5 1 4 3 4 5 9 7 5 8 5 5 7 6 6 7 8 7 8 8 7 7 5 4 4 4 3 2 4 4 4 4 5 5 5 5 5 6 6 7 7 8 8 8 7 8 8 9 9 9 10 10 11 10 12 12 12 12 12 12 13 13 13 13 13 14 14 14 14 14 13
5 2 4 6 6 3 1 5 8 5 6 7 5 5 5 3 1 3 6 4 2 2 2 2 1 3 2 6 3 3 4 5 6 6 6 6 6 6 7 6 7 7 8 8 9 7 8 6 6 4 4 4 4 4 3 3 4 4 5 4 4 3 4 5 4 5 6 7 7 7 7 6 6 6 8 6 9 9 10 9 11 11 12 12 12 13 12 13 13 13 13 13 13 13 13 13 12
3 3 3 5 5 5 2 3 2 3 5 6 5 2 5 3 4 5 4 4 2 2 2 4 5 4 3 4 3 5 5 4 4 6 6 7 7 7 7 8 8 9 8 9 9 8 7 6 5 4 4 4 4 4 5 5 4 5 5 4 3 3 3 3 3 3 4 5 5 5 5 4 3 3 6 4 7 6 8 8 10 10 11 11 12 12 12 12 12 12 12 12 12 12 12 11 10
0 3 4 4 6 2 6 5 8 4 7 6 5 6 7 5 5 3 1 2 5 4 5 5 5 3 6 2 4 5 4 1 3 7 7 7 7 7 7 7 7 8 6 8 8 7 7 6 7 5 5 5 5 5 5 5 4 5 6 6 5 4 3 3 2 1 1 1 3 3 4 2 3 3 3 5 5 5 6 8 8 9 10 10 11 11 11 11 12 11 12 11 12 12 11 9 7
3 2 5 6 3 3 9 7 6 4 10 9 9 8 6 7 5 4 3 6 7 6 7 6 6 9 10 1 1 1 0 3 8 10 9 9 7 7 7 8 8 8 8 7 9 9 6 6 7 7 5 6 5 4 4 4 4 5 6 5 4 3 4 3 3 2 1 2 1 2 2 2 3 3 3 4 4 5 4 7 7 8 9 9 9 9 9 10 10 10 10 10 10 10 9 5 5
3 3 2 8 2 3 3 4 6 7 8 11 8 5 6 3 7 5 5 5 7 7 9 8 10 11 11 11 8 5 3 6 10 12 12 12 10 11 9 7 8 8 7 6 6 7 6 6 6 6 7 6 5 6 4 5 5 5 5 5 4 4 4 4 3 3 2 2 2 2 2 2 2 3 2 3 4 5 3 5 5 6 6 7 8 7 6 7 8 8 8 9 8 8 5 4 5
3 1 6 4 3 5 3 3 6 3 9 10 10 6 6 3 5 5 6 3 4 9 7 7 10 11 12 12 11 9 6 8 11 13 14 14 13 11 10 9 8 8 8 6 5 3 5 5 7 7 7 6 6 5 4 4 5 4 4 4 4 4 3 3 4 3 3 2 2 2 2 1 2 2 1 4 6 3 2 3 3 4 3 3 8 5 5 4 8 5 6 7 4 3 4 4 4
3 2 4 5 5 7 2 1 2 1 2 10 7 5 5 5 5 6 3 5 11 11 12 10 9 12 9 10 11 9 9 10 11 12 13 13 13 10 9 8 7 5 4 3 4 5 6 6 6 6 6 6 6 5 5 5 4 4 4 4 4 4 3 3 3 3 3 3 3 3 2 2 2 3 2 2 2 2 3 3 3 3 4 4 5 4 4 5 5 5 4 5 4 4 4 4 4
6 6 5 8 1 4 4 2 3 2 4 6 6 8 6 5 3 8 7 8 4 3 8 12 11 6 7 8 9 8 10 10 11 13 14 14 13 12 9 7 6 5 3 5 7 6 7 6 7 6 5 6 6 5 5 4 4 5 5 5 4 4 4 4 3 3 3 4 3 3 3 3 3 2 2 2 2 2 3 3 3 3 3 4 3 4 4 5 5 5 5 5 5 4 4 4 4
8 4 4 4 5 3 2 1 1 2 3 6 6 3 3 7 5 8 11 15 7 2 2 6 7 2 1 2 6 9 10 11 11 13 13 12 12 12 10 8 7 7 6 7 7 6 6 6 7 6 6 5 7 6 4 4 5 5 4 4 4 5 4 4 4 4 4 3 3 3 3 3 3 3 2 2 2 2 2 2 3 3 3 3 3 4 4 4 4 4 5 5 5 5 5 5 4
7 6 1 5 3 5 2 2 2 1 2 3 2 3 6 3 8 2 9 16 16 5 1 1 2 2 1 4 7 9 11 11 12 12 12 13 12 12 10 8 7 5 5 7 7 7 6 8 7 7 7 7 5 5 6 5 5 5 5 4 5 6 5 5 5 4 3 3 4 4 3 3 3 3 3 3 2 2 2 2 3 3 3 3 3 3 4 4 4 4 4 5 5 5 5 5 5
9 8 1 3 3 3 1 2 2 1 1 2 1 4 6 7 4 2 12 16 13 13 7 4 3 2 4 6 7 8 9 10 11 10 8 8 8 8 7 6 7 6 9 9 7 7 9 7 6 8 8 8 6 5 5 5 5 5 5 5 5 5 5 5 5 4 4 4 4 4 4 4 3 3 3 3 2 3 2 2 3 3 3 3 3 3 3 4 4 5 5 5 5 5 5 5 5
5 7 6 5 4 3 2 2 1 0 0 1 3 8 6 3 4 10 20 11 2 1 4 8 8 9 10 10 11 9 9 11 10 9 10 8 7 8 11 9 8 9 11 9 8 8 8 7 7 9 8 7 6 5 5 5 5 5 5 6 5 5 6 5 4 4 4 4 4 5 5 5 4 4 3 3 3 3 3 2 3 2 3 2 3 3 3 4 5 5 5 5 6 6 6 5 5
6 8 7 7 3 3 1 1 1 0 2 2 4 7 4 2 2 7 3 1 2 2 5 5 7 11 12 10 9 9 10 11 10 8 6 7 8 9 10 9 10 11 9 10 9 8 6 6 8 8 8 7 5 6 6 6 6 6 5 5 5 5 5 4 5 5 5 5 5 4 5 5 4 4 4 4 3 3 3 3 3 2 3 2 2 3 3 4 4 4 5 5 5 6 5 5 5
10 12 11 8 3 3 2 2 2 1 3 3 4 9 3 4 3 12 2 3 1 4 5 6 7 9 9 10 8 7 7 8 6 6 10 10 8 9 10 9 10 10 9 11 9 7 6 8 8 8 7 6 6 7 6 7 7 6 5 5 5 5 5 5 5 5 5 5 5 5 5 5 5 5 4 4 4 4 4 3 3 3 3 2 2 3 3 4 4 4 5 5 5 5 5 5 5
5 2 4 2 2 3 2 1 1 1 1 2 2 8 9 9 11 16 4 2 2 4 6 5 7 8 7 7 7 7 8 7 6 7 10 9 8 7 9 9 9 8 7 9 8 6 9 8 7 7 6 7 8 8 7 6 6 5 5 5 5 4 5 5 5 5 5 5 4 5 5 6 5 5 5 5 4 4 4 4 4 3 3 3 3 3 4 4 4 4 4 4 4 5 5 5 5
3 2 3 4 3 3 2 0 0 3 1 2 3 5 1 10 17 7 4 2 2 5 8 7 5 5 6 6 7 8 7 7 8 9 8 8 8 7 9 9 8 7 6 5 6 9 7 4 4 4 6 7 8 7 7 6 6 5 5 4 4 4 4 5 5 5 5 4 4 5 5 6 5 5 5 4 4 4 4 4 4 3 3 2 3 3 3 3 4 4 5 5 4 5 5 5 5
2 0 2 1 2 2 3 1 2 4 3 2 2 4 7 3 7 5 3 2 5 7 7 6 5 5 5 5 6 8 9 9 10 9 9 9 7 6 9 9 8 9 6 7 9 10 7 6 4 4 6 7 7 8 8 8 5 5 5 4 4 4 4 5 5 4 4 4 4 4 6 6 6 6 5 4 4 4 5 5 4 3 2 2 3 2 3 3 3 3 3 5 5 5 5 6 6
2 2 2 1 3 2 2 2 1 4 2 0 3 6 7 6 4 6 2 1 4 7 7 5 4 5 5 5 7 7 9 7 8 9 10 10 9 8 9 11 9 9 10 9 8 7 8 8 7 7 7 8 8 8 7 6 6 5 5 5 4 4 4 5 5 4 4 4 4 4 5 6 5 6 5 5 5 5 4 5 4 2 2 3 3 3 3 3 3 3 2 3 5 5 5 6 5
1 2 1 1 1 1 2 3 2 2 4 3 5 7 9 8 1 1 3 4 1 4 7 6 6 6 6 6 6 6 6 8 8 10 11 10 9 9 9 10 9 10 9 9 9 8 9 9 8 9 10 9 9 8 7 7 5 5 5 5 5 4 5 5 4 4 4 4 4 4 5 5 5 5 5 5 5 5 5 4 4 2 2 3 3 3 3 2 2 3 3 2 3 5 6 6 6
1 1 1 1 2 2 1 3 1 2 3 3 3 5 13 13 7 5 5 5 4 7 10 11 10 8 7 6 6 7 7 7 8 8 10 10 7 9 9 9 9 8 9 10 10 9 10 8 7 8 8 8 7 7 6 5 5 5 5 5 5 5 5 5 4 4 4 4 4 5 5 5 5 5 5 5 5 5 4 4 4 3 3 3 3 3 3 2 2 2 4 3 3 4 5 6 7
2 1 0 1 3 4 5 4 2 4 4 6 4 9 19 19 16 14 12 9 8 13 12 11 9 8 7 6 7 8 7 8 10 8 6 6 6 7 7 8 8 8 8 9 9 9 8 8 7 8 8 8 7 6 5 4 4 4 4 4 4 5 5 5 4 4 5 4 5 5 5 4 5 5 5 5 5 4 4 4 4 3 3 3 3 3 3 3 2 2 3 3 3 3 4 4 6
1 2 1 1 3 1 2 1 2 4 5 6 8 9 13 16 15 13 8 7 9 12 10 9 9 8 8 8 8 7 8 10 9 5 3 5 5 6 6 6 7 7 7 7 9 8 9 8 7 6 7 7 6 5 4 5 4 4 5 4 5 6 5 4 4 5 4 5 5 5 5 4 4 4 5 5 5 4 4 4 4 3 3 3 3 4 3 2 2 3 3 3 4 4 3 3 5
2 2 2 1 3 3 1 1 2 1 5 7 6 9 14 18 18 17 12 6 8 11 12 11 9 8 8 7 8 8 9 11 2 2 4 5 6 6 6 6 6 6 7 8 8 9 9 8 6 9 6 6 6 6 6 6 5 4 4 6 5 4 4 4 4 4 5 4 4 5 4 4 4 5 5 5 5 5 4 4 3 3 3 3 4 3 2 2 2 2 3 3 3 4 2 2 4
2 2 2 1 1 4 2 2 3 1 3 3 2 9 17 18 18 16 10 6 14 13 12 11 11 9 7 8 8 9 9 5 6 7 7 7 7 7 6 5 6 8 8 8 10 10 8 8 9 7 5 6 7 7 5 6 6 5 3 3 3 3 3 4 4 4 4 3 4 4 4 4 4 4 4 5 5 5 4 4 4 3 3 3 3 2 2 2 3 2 2 3 2 2 3 3 4
1 2 1 2 2 6 1 1 0 1 3 7 5 12 18 20 15 14 9 9 9 7 9 9 6 7 6 6 7 8 6 8 5 8 6 6 6 6 5 5 5 7 6 6 6 6 7 7 7 7 6 5 5 6 5 5 5 4 3 2 2 2 1 1 1 1 1 2 3 3 3 3 4 4 4 5 4 4 4 4 3 3 3 3 3 3 3 3 2 2 2 2 3 1 2 1 4
2 1 1 4 3 5 3 2 2 2 2 8 10 12 15 14 8 5 2 3 5 4 5 8 6 8 7 6 5 5 7 7 8 8 7 5 4 4 4 5 5 4 4 5 6 6 5 5 5 6 5 5 5 5 6 4 2 1 2 1 1 1 1 1 1 1 2 2 3 3 3 3 4 4 4 4 4 4 4 3 3 3 3 3 3 3 3 3 2 2 2 1 2 4 2 2 3
1 1 1 1 2 1 2 5 7 3 0 3 12 10 6 2 3 2 3 3 4 4 5 7 8 9 8 6 6 7 8 7 7 6 6 5 5 6 6 5 3 4 5 5 4 4 3 5 5 5 5 5 5 5 6 5 4 3 3 2 1 2 2 3 3 4 4 3 3 3 4 4 4 4 4 4 4 4 3 3 3 2 3 3 3 3 3 2 2 1 1 1 1 3 3 2 2
1 1 2 1 1 4 5 7 8 3 2 3 8 9 0 1 5 7 6 5 6 2 3 6 6 6 7 9 11 8 9 8 8 8 5 4 4 4 4 4 5 5 4 3 2 2 2 3 3 4 3 3 4 5 6 5 5 6 5 5 5 5 5 5 5 5 4 4 4 3 3 3 3 3 3 3 3 3 3 3 3 3 3 3 3 2 2 2 3 2 2 1 1 1 3 2 2
2 2 0 0 1 2 4 6 4 4 6 5 3 3 7 1 7 5 5 7 11 3 5 8 5 5 6 8 7 7 8 7 8 9 7 6 6 5 6 6 6 6 4 2 2 2 2 2 2 3 3 3 3 4 6 5 6 6 7 7 6 5 5 4 2 1 2 3 3 3 3 2 2 3 3 3 3 3 3 3 3 3 3 2 2 2 3 2 2 2 2 2 0 1 2 1 2
1 1 2 2 1 3 2 2 1 3 1 3 2 3 4 9 6 2 3 9 8 7 5 6 7 7 8 8 8 8 7 8 6 8 9 8 7 7 8 8 7 6 4 3 2 2 2 2 2 3 3 3 3 4 6 6 6 6 7 7 5 5 5 3 3 3 2 3 3 3 3 3 2 2 2 3 3 3 3 3 3 3 3 3 3 3 2 2 2 2 1 1 1 1 1 1 0
2 2 1 0 3 2 1 2 1 1 4 1 2 2 4 4 6 2 2 5 5 6 6 4 5 7 8 7 8 8 8 7 7 6 8 8 8 8 6 5 5 5 4 4 4 3 2 2 2 2 2 3 3 5 5 7 6 6 6 5 6 5 4 3 3 3 3 3 4 3 3 3 2 2 2 2 3 3 3 3 4 3 3 3 3 2 2 2 2 3 3 3 2 1 1 0 2
2 2 2 1 1 0 2 1 1 1 2 1 3 5 3 9 1 4 2 2 4 6 8 6 4 5 6 6 7 7 5 5 6 8 6 5 3 3 3 3 5 5 4 3 3 3 3 3 4 4 4 3 3 5 6 6 7 5 6 6 7 5 4 3 4 4 4 4 4 4 4 4 3 3 3 2 3 3 3 3 3 4 4 3 3 2 3 3 3 2 2 2 2 2 2 2 1
2 3 1 3 3 2 1 0 1 1 2 1 3 3 3 6 4 3 2 4 5 8 7 6 2 3 5 6 7 5 5 5 5 6 6 5 2 2 2 6 5 4 3 4 4 4 4 5 5 6 4 3 3 4 6 7 7 6 6 7 8 7 6 6 5 5 5 5 5 5 5 4 3 3 3 3 2 3 3 3 3 3 3 3 3 4 3 3 3 3 3 3 3 3 2 2 2
1 0 3 3 3 3 1 1 1 1 0 3 1 2 3 3 5 2 4 1 3 5 11 12 12 8 3 2 3 4 4 4 3 4 5 4 4 4 4 6 6 6 5 5 5 4 5 5 5 6 5 5 4 4 5 6 6 6 6 6 7 7 7 6 7 7 7 7 6 6 5 4 4 4 3 3 3 3 3 3 3 4 3 3 3 3 3 3 4 3 3 3 3 3 2 3 2
1 2 4 3 2 2 1 0 2 1 3 3 1 3 3 10 11 12 16 14 9 4 7 10 11 12 8 4 3 4 3 3 5 5 4 3 5 6 7 7 6 7 7 8 7 6 6 6 7 8 7 6 5 4 5 6 6 6 6 6 7 5 6 7 7 6 7 6 6 6 6 6 5 5 5 4 4 5 4 4 4 4 4 3 4 4 4 4 4 4 3 3 3 3 3 2 2
1 2 3 1 2 2 2 1 1 3 1 2 1 2 5 8 10 10 12 11 6 6 6 8 10 11 9 7 6 5 4 5 4 4 4 5 5 6 6 7 7 7 8 8 7 7 6 6 8 8 8 6 5 5 5 6 6 6 6 6 6 5 6 6 6 6 6 6 6 6 6 6 6 6 6 5 5 5 4 4 4 4 4 4 4 4 4 4 4 4 4 3 3 2 2 2 2
1 2 3 1 1 1 2 2 3 3 3 0 1 2 3 5 2 2 5 10 11 9 8 8 9 10 9 7 7 8 7 6 4 5 6 6 7 7 7 7 7 7 8 8 7 8 7 8 8 9 8 7 6 7 5 6 5 5 5 5 5 5 5 5 5 5 6 6 6 6 5 5 5 5 6 5 5 5 5 5 5 5 5 5 5 5 4 4 4 3 3 3 2 2 2 2 2
1 1 3 2 1 1 3 1 2 2 3 4 3 4 2 5 9 13 5 6 7 2 4 4 6 4 4 6 6 5 5 5 3 5 6 8 7 7 7 8 8 8 9 8 9 8 8 9 8 9 9 8 7 6 6 6 5 4 5 6 6 6 5 5 4 4 5 5 6 6 6 6 4 5 5 5 5 5 5 6 5 5 5 5 5 5 5 4 4 4 3 3 3 2 2 2 2
2 1 1 1 3 0 3 2 3 2 2 5 0 6 6 7 9 7 5 4 2 1 2 4 6 4 3 3 4 5 5 5 5 6 6 7 7 8 8 9 8 9 9 10 11 11 11 9 8 9 7 6 7 7 6 5 5 5 5 5 5 6 6 7 6 7 6 5 5 5 6 5 5 5 5 5 6 5 6 6 6 6 5 5 5 5 4 4 4 3 3 3 3 3 2 2 2
0 2 2 3 0 2 0 2 0 1 1 2 1 4 9 7 3 1 5 5 7 8 6 7 4 4 5 5 4 5 6 6 7 8 8 8 8 8 8 8 9 9 10 10 12 9 8 8 9 9 8 8 7 7 6 6 6 6 5 5 6 6 6 6 6 7 6 6 5 5 5 5 6 5 5 4 6 6 6 6 6 5 5 5 5 5 4 4 4 3 3 2 2 2 2 2 2
3 2 2 2 1 1 1 0 2 2 3 3 4 6 7 5 8 4 4 5 9 9 8 8 9 9 8 7 6 4 4 5 5 7 6 6 8 8 8 9 8 8 8 8 6 6 6 6 7 8 9 8 8 6 6 5 6 4 4 5 6 6 5 5 5 6 6 6 7 6 7 6 5 6 6 6 6 6 6 6 6 6 5 5 5 5 5 4 4 3 3 3 2 2 2 1 1
2 1 1 0 2 2 2 0 1 1 3 2 2 2 7 6 4 4 8 6 5 7 8 6 7 6 6 5 5 5 5 5 6 6 6 7 8 9 9 10 10 10 9 8 7 6 8 8 7 7 5 5 6 7 7 7 6 5 4 4 5 5 5 5 6 7 7 7 7 7 7 7 7 6 6 7 7 7 7 7 6 6 6 6 5 5 4 4 4 3 3 2 2 2 2 2 2
3 2 1 1 1 1 1 0 2 2 2 1 2 3 8 3 5 4 9 7 5 4 6 7 5 6 5 5 5 6 7 7 7 7 8 8 8 8 8 8 8 7 7 7 8 9 8 7 8 8 9 8 8 8 8 7 6 6 7 7 7 6 7 6 6 7 7 7 6 6 7 6 6 6 7 7 7 7 7 7 7 6 7 6 6 5 5 4 4 3 2 2 2 2 2 2 2
1 3 5 6 6 3 2 3 3 0 2 3 2 5 7 9 6 8 7 4 4 2 3 6 7 8 8 7 7 6 8 9 8 9 8 8 8 8 8 6 6 7 8 10 9 7 8 9 8 8 8 8 9 9 8 8 7 6 8 8 7 6 6 6 7 7 7 7 7 7 7 7 8 7 7 7 8 7 6 7 7 7 6 6 6 5 5 4 4 4 3 2 2 3 3 2 3
Wind_Direction
62 83 224 250 291 284 35 351 69 24 78 70 90 72 91 18 42 163 132 170 165 82 344 203 213 181 272 5 356 11 13 301 21 306 69 62 111 62 159 187 210 231 258 324 335 332 356 32 18 18 20 27 29 28 24 24 25 21 20 18 22 21 21 20 20 20 19 17 17 17 16 18 18 17 19 19 22 23 23 23 24 24 24 24 24 24 25 25 24 25 25 25 27 25 27 25 26
44 7 66 82 27 266 47 312 95 103 94 92 60 58 91 96 213 120 137 296 29 83 115 154 145 90 84 41 25 292 172 276 332 14 78 88 24 189 193 203 201 225 241 312 311 320 346 31 21 20 21 23 24 26 25 25 28 24 17 19 18 19 18 17 16 16 16 16 15 14 15 14 17 16 16 19 19 21 22 23 23 24 24 24 24 25 26 24 25 25 26 26 27 26 28 25 26
46 359 250 83 45 55 111 307 107 110 105 86 70 70 184 170 115 110 72 86 100 101 99 106 119 203 216 223 218 282 86 230 196 172 3 111 201 166 188 192 208 220 241 290 286 334 333 30 14 22 21 22 26 27 26 26 27 25 21 18 18 14 15 17 16 14 13 12 12 12 13 12 11 15 16 18 19 20 20 22 23 24 23 25 24 24 25 25 25 24 25 26 25 26 27 26 27
79 27 318 268 87 347 45 51 66 83 92 99 101 105 113 109 104 99 91 104 120 159 260 184 237 76 282 216 17 236 78 146 181 154 153 178 251 117 175 190 202 217 231 228 262 326 7 9 12 18 20 21 26 27 29 26 27 25 25 20 16 15 12 11 11 12 8 9 10 12 11 11 10 11 15 15 18 20 20 21 23 22 23 24 24 25 24 25 25 25 25 25 25 24 27 25 26
70 39 14 67 84 41 67 54 70 15 97 78 118 140 140 126 122 140 146 156 191 232 284 356 234 131 332 340 319 286 98 89 186 198 344 144 124 159 164 187 199 215 221 224 253 323 26 339 353 12 18 21 24 27 26 27 25 25 23 22 17 14 13 10 8 9 8 5 7 7 9 9 13 6 13 13 15 18 19 20 21 22 22 22 24 24 25 25 25 26 25 24 24 25 27 25 26
84 64 32 55 66 206 132 93 66 61 50 2 117 136 141 131 139 156 154 212 221 239 278 274 323 120 207 171 269 273 143 183 97 178 220 136 169 175 180 185 211 222 221 230 280 314 357 337 350 4 14 20 23 27 25 24 23 23 23 21 18 15 13 8 7 9 7 8 5 9 8 10 11 9 9 14 12 16 19 21 20 21 21 23 24 23 24 24 25 26 25 24 24 24 25 26 28
38 101 38 95 99 34 77 86 83 89 74 332 99 127 151 151 137 190 172 199 202 242 207 269 264 227 222 137 221 246 255 56 180 120 194 66 165 184 189 199 213 220 218 241 244 275 294 320 324 352 9 15 23 25 25 23 22 21 21 18 18 18 15 9 9 7 10 10 8 11 12 12 12 12 9 13 11 12 18 19 19 21 21 23 23 26 24 25 25 25 25 25 24 25 25 24 28
65 249 16 88 78 63 72 81 79 47 116 336 27 119 133 145 159 214 162 254 131 227 158 233 248 284 40 295 283 114 176 220 246 60 212 218 184 193 197 203 213 216 216 228 243 264 270 269 312 335 356 11 20 22 22 23 19 18 16 16 17 18 15 13 12 9 14 13 12 11 13 14 13 14 12 12 12 10 13 17 18 18 20 21 21 23 25 24 24 25 25 25 25 24 25 25 25
35 75 268 92 83 83 82 67 89 41 107 152 134 1 39 88 196 255 249 285 308 250 209 208 193 245 114 180 245 97 208 208 225 236 240 213 207 193 197 211 218 207 216 224 234 239 248 254 295 314 339 357 13 18 17 19 16 13 14 15 15 14 16 15 14 13 12 14 13 12 12 12 14 14 14 11 13 12 9 13 16 16 18 18 20 20 22 23 22 22 24 24 24 24 23 24 23
72 342 86 92 125 92 103 111 113 108 110 119 152 154 173 168 204 257 292 224 238 252 137 29 221 250 40 217 207 200 192 172 190 218 218 209 206 195 207 212 220 230 216 224 232 243 252 253 266 286 305 341 355 6 12 10 10 9 11 12 13 13 13 15 15 12 13 11 10 13 12 12 13 13 12 10 12 12 10 8 14 15 15 16 17 19 19 19 20 20 22 23 23 22 22 21 22
72 35 335 116 89 109 104 121 111 130 145 158 217 217 212 185 239 250 245 294 323 255 125 163 172 230 223 214 270 65 87 157 191 208 198 197 197 206 210 214 221 233 236 230 239 246 247 240 239 265 282 302 339 352 3 2 1 1 7 10 10 9 12 13 15 14 12 12 11 13 13 12 11 11 11 10 9 11 9 8 8 12 13 14 15 15 16 17 17 18 20 21 22 22 20 19 19
134 345 226 99 73 110 127 124 130 127 144 182 196 176 172 200 188 237 211 238 197 226 244 184 49 155 208 227 191 144 156 198 209 205 189 187 197 209 217 210 215 222 237 246 240 243 247 247 239 218 252 281 308 328 337 351 351 352 358 3 6 7 9 12 12 15 14 12 13 15 16 14 10 10 8 11 7 9 9 7 3 9 11 11 12 13 14 16 16 16 17 18 19 19 18 16 15
51 205 112 78 72 90 121 120 130 136 163 202 168 152 139 178 207 233 204 266 216 234 217 201 358 274 221 206 70 158 213 210 206 198 189 188 200 206 218 226 220 225 229 235 243 244 238 247 244 248 242 256 258 296 316 320 330 338 347 352 359 4 8 8 11 13 15 14 14 15 18 15 11 8 8 8 8 7 6 7 1 5 9 10 10 11 12 13 14 15 15 15 16 15 14 13 12
75 352 325 102 328 118 119 100 134 154 175 131 115 119 186 211 213 261 237 226 202 227 56 61 204 266 269 289 169 202 190 177 188 188 190 198 203 211 221 226 224 232 231 232 237 241 242 242 248 250 244 241 258 246 244 266 296 308 326 337 347 357 0 3 8 13 15 14 14 13 16 13 10 6 8 5 8 6 5 5 -0 3 9 9 9 10 10 12 12 12 13 13 13 13 10 9 7
104 227 78 102 120 132 33 133 169 162 126 154 129 169 175 221 164 193 211 244 209 38 94 219 253 231 101 203 144 167 138 146 169 165 188 196 209 219 224 227 231 231 234 233 239 242 247 244 245 245 241 250 249 261 268 238 237 279 296 313 327 343 352 359 2 10 13 11 10 11 8 5 4 4 2 1 5 4 6 0 3 1 7 9 9 9 8 9 9 10 10 10 10 9 6 3 3
123 162 87 115 136 141 173 108 90 156 129 168 136 190 198 138 205 200 213 260 311 140 223 194 189 246 336 272 62 121 111 123 151 167 180 197 211 221 221 229 233 230 231 234 236 238 244 248 248 246 242 240 245 256 259 261 241 242 267 278 276 297 327 345 351 6 10 7 4 1 357 338 354 355 355 347 4 359 6 3 1 1 5 7 8 8 7 6 6 6 6 4 4 2 357 351 355
293 255 101 90 124 167 173 153 173 146 113 152 139 185 197 185 162 278 42 223 246 192 207 229 210 204 239 233 90 107 93 87 156 171 184 203 208 217 221 225 229 233 229 231 234 238 233 241 245 246 241 237 240 248 254 255 249 237 246 234 247 260 280 290 315 266 311 353 349 351 310 344 345 350 347 356 343 1 355 359 0 360 1 3 5 5 6 4 5 4 1 1 357 353 347 331 335
244 56 100 89 103 127 170 164 174 86 144 161 173 185 187 190 178 184 181 221 238 261 246 239 229 239 244 227 43 21 194 186 179 182 197 204 207 216 216 221 219 228 225 228 227 231 236 236 240 240 248 234 236 235 243 244 248 231 251 253 244 228 222 239 235 268 254 298 227 287 317 336 345 341 346 348 340 348 351 352 352 353 356 358 357 357 360 0 1 360 358 354 350 344 334 333 340
39 120 48 119 188 31 127 116 118 145 154 156 160 174 207 177 180 161 230 221 215 243 241 226 245 244 234 235 227 229 197 197 187 199 202 207 206 214 217 215 219 228 231 230 231 222 224 241 238 239 239 242 233 239 241 247 245 248 242 239 239 227 238 222 253 226 265 263 293 291 294 345 333 317 345 345 315 311 307 331 337 339 342 349 347 334 343 351 347 350 351 344 335 334 335 341 340
30 322 96 87 37 94 45 151 145 342 137 146 156 176 216 159 196 128 229 246 189 238 233 203 232 241 224 222 212 214 212 209 199 203 211 213 214 217 222 224 223 225 235 234 238 209 219 235 240 243 242 237 233 246 242 244 243 238 242 238 237 239 224 227 232 240 242 241 250 282 289 312 301 298 260 225 255 281 311 274 294 296 302 317 339 314 321 329 326 323 330 333 329 349 346 339 337
8 5 60 126 138 129 128 164 89 121 184 154 158 127 213 198 186 192 208 249 236 238 233 231 218 224 220 202 196 196 206 207 203 209 215 219 221 223 229 231 237 236 233 244 248 243 229 227 235 238 236 235 234 244 243 247 238 238 241 236 237 242 237 235 238 224 223 227 233 259 273 275 274 284 301 314 311 316 316 326 326 342 347 338 338 331 332 336 332 339 337 341 349 343 340 337 333
74 51 14 93 94 91 91 101 51 120 341 146 135 167 199 101 179 216 213 232 235 205 221 215 240 230 208 185 196 192 207 210 208 209 217 220 221 224 228 238 241 249 251 252 245 243 230 225 227 242 233 233 232 241 244 245 226 245 239 230 234 235 233 236 239 232 224 212 223 236 251 253 258 267 278 293 301 310 311 332 331 338 336 334 338 336 339 337 336 341 338 341 341 338 333 331 325
92 40 51 30 344 89 63 152 122 174 150 160 172 197 81 193 229 211 221 229 237 62 59 200 213 229 129 115 166 197 210 215 213 214 216 223 228 231 230 233 237 237 232 239 244 246 242 232 227 228 239 238 234 234 242 241 242 240 238 234 230 236 227 231 231 230 232 215 215 221 248 261 263 273 272 274 292 309 316 326 336 333 330 336 341 331 336 332 333 336 338 333 332 326 326 326 317
81 115 63 53 2 76 11 76 108 313 182 191 23 15 235 172 248 113 230 236 239 215 170 224 47 64 146 189 198 209 211 215 218 220 219 224 226 228 231 235 237 244 247 247 244 245 240 239 233 221 236 236 238 221 227 237 239 234 233 227 226 239 233 235 233 231 221 221 216 235 238 257 270 274 274 278 284 297 306 323 319 319 333 331 333 325 333 335 330 333 329 327 325 325 325 323 325
79 95 136 117 70 70 52 102 161 318 301 3 280 234 246 222 288 5 248 242 235 235 212 208 206 208 205 225 217 220 224 222 225 223 222 231 232 237 232 238 243 242 248 244 243 244 243 240 229 230 236 234 236 221 229 236 235 228 226 226 234 217 227 234 232 219 224 229 217 211 222 245 251 257 269 279 284 286 293 301 311 317 320 325 328 326 335 330 330 331 330 330 326 327 325 329 324
38 100 123 121 100 95 77 132 133 262 125 194 230 252 258 270 355 257 251 249 137 356 260 234 227 237 237 232 232 226 225 224 223 222 223 223 230 234 238 232 232 236 239 247 243 243 247 234 229 235 235 235 229 220 236 234 226 228 222 225 229 214 230 233 217 228 228 221 222 209 210 235 248 261 265 270 273 281 287 284 282 297 311 313 321 325 338 326 328 326 330 326 326 325 323 327 322
110 114 105 107 94 120 110 212 118 44 262 134 255 271 258 96 251 280 195 167 75 214 228 209 215 231 235 232 229 227 229 228 221 222 216 219 226 228 238 231 228 237 240 244 243 244 243 229 237 238 235 229 224 231 233 236 230 233 227 222 220 225 225 220 224 228 224 223 227 205 209 220 240 244 254 263 269 271 275 278 286 298 294 307 311 313 321 318 316 320 325 324 325 322 318 320 319
109 116 99 78 97 79 125 150 79 272 195 179 241 271 269 207 201 247 171 151 49 252 231 209 213 230 232 230 230 227 229 236 226 206 226 221 221 218 227 222 228 232 228 238 240 243 242 239 244 239 233 220 222 233 231 233 232 230 227 224 225 224 213 226 228 225 225 224 212 205 215 218 224 239 238 248 254 268 272 277 284 286 296 298 298 306 313 306 302 302 301 304 303 304 309 312 315
117 256 104 63 133 153 69 175 66 294 221 161 153 276 239 179 230 241 179 139 209 256 266 235 227 231 235 235 231 229 230 226 213 221 226 228 230 220 232 228 232 232 232 239 243 237 246 249 244 239 226 220 224 232 230 233 232 227 223 226 227 207 219 226 229 226 225 220 208 209 214 216 219 232 232 231 240 256 264 266 272 270 281 297 299 295 289 286 291 306 309 301 298 306 304 312 311
182 76 100 145 163 179 137 100 37 259 151 158 213 302 165 205 227 227 133 241 277 263 254 238 224 222 233 231 236 238 230 221 224 225 226 227 228 229 236 240 230 233 243 237 230 240 239 235 226 233 221 226 226 233 232 234 228 230 230 229 225 215 223 225 228 231 224 224 217 209 211 215 221 227 232 232 236 253 256 258 260 268 266 277 280 283 291 297 307 313 320 318 317 309 316 317 316
170 57 267 28 237 142 105 296 17 262 111 178 243 271 289 212 204 200 118 193 228 253 249 235 225 230 229 230 232 239 237 223 230 229 231 232 235 233 235 245 233 231 236 241 236 243 239 230 220 231 217 228 225 227 229 235 235 232 231 228 228 219 227 229 233 225 223 224 220 217 210 214 217 226 222 236 237 244 255 260 255 258 256 268 276 275 295 294 285 307 321 325 317 315 316 314 313
69 217 131 130 299 98 126 68 0 262 133 207 243 264 262 306 272 126 102 131 205 240 254 247 237 239 240 239 237 239 245 227 229 237 239 239 232 233 228 238 232 230 232 239 243 244 244 240 224 233 232 232 228 229 229 231 233 233 234 235 237 215 231 234 230 227 225 224 221 227 208 211 219 218 219 222 242 243 251 262 265 257 236 258 260 267 266 285 308 304 293 303 318 316 313 311 312
92 330 67 289 256 334 234 119 52 354 303 250 255 280 320 290 26 75 130 149 174 275 270 263 248 241 241 237 239 242 253 242 230 233 233 227 227 224 231 237 232 228 233 238 240 244 246 241 229 233 236 234 237 234 226 230 233 235 234 232 228 223 229 233 232 223 222 225 227 227 215 208 213 213 216 216 237 244 249 256 263 243 241 258 262 260 260 272 296 303 303 298 296 308 307 308 309
112 344 12 58 294 347 293 116 108 319 259 237 172 241 251 265 259 163 198 216 266 272 270 269 265 256 243 240 241 244 243 251 243 229 229 217 222 221 228 235 238 234 235 237 241 242 247 247 232 226 236 234 235 233 229 224 228 229 235 232 228 233 232 234 233 221 229 228 222 224 211 208 215 211 210 215 230 240 252 257 260 243 241 244 253 255 262 266 258 278 305 309 307 304 312 319 319
39 51 272 154 202 227 293 299 69 307 178 251 237 252 267 266 266 255 236 201 247 267 267 270 268 262 251 240 244 242 242 242 246 237 216 196 222 227 230 234 235 234 235 236 237 238 242 245 239 236 233 234 230 228 224 226 229 233 235 236 233 234 233 228 222 230 230 225 225 219 205 214 212 210 208 210 226 233 236 239 245 230 239 248 252 254 251 232 243 256 275 300 281 285 306 319 318
247 246 25 297 325 193 307 52 52 345 295 270 239 259 282 286 281 272 246 196 233 254 262 260 257 253 249 241 240 238 237 244 246 238 208 233 225 227 230 229 233 231 232 234 235 235 236 242 240 240 232 226 223 217 208 218 214 219 224 212 230 228 225 218 213 229 225 226 221 213 213 214 212 208 207 209 222 230 236 237 234 209 232 238 245 253 253 244 280 281 271 284 294 288 247 311 319
98 110 190 233 274 258 138 209 18 274 273 245 274 279 279 279 276 275 268 168 225 245 248 247 243 238 232 230 229 233 235 240 202 234 246 229 231 233 234 236 238 236 237 233 234 233 231 232 229 235 226 211 211 210 208 205 206 210 223 231 239 219 211 206 220 215 219 226 216 215 211 216 211 211 210 210 218 221 231 232 222 215 219 230 241 247 258 272 256 273 291 266 297 310 302 337 322
271 231 282 355 204 329 76 345 24 250 335 287 129 295 280 273 276 273 265 214 249 234 238 238 239 229 231 230 235 233 240 257 260 256 239 227 227 227 227 231 229 237 235 223 227 232 230 227 229 236 219 208 213 217 208 204 210 216 216 214 211 225 211 210 219 203 207 206 208 210 211 214 210 211 207 208 215 219 222 218 214 213 204 223 236 244 235 244 247 256 285 278 204 308 329 3 352
195 300 307 278 61 282 289 17 156 318 322 280 15 316 293 285 286 289 279 255 258 245 240 255 253 244 234 228 235 242 240 250 244 242 236 226 221 221 219 224 226 232 245 223 230 227 224 224 228 228 223 214 213 211 213 213 209 214 224 240 222 226 180 332 330 61 156 198 192 199 210 209 205 207 203 206 215 213 221 221 213 197 201 210 218 207 195 218 231 256 290 310 317 220 289 78 7
7 315 328 357 5 345 317 125 359 156 286 311 323 301 282 292 289 272 329 291 285 296 280 264 255 254 244 236 233 235 237 243 242 235 231 203 204 209 200 215 220 211 234 236 224 224 222 220 221 215 220 216 216 206 211 217 186 151 172 339 67 318 0 116 205 158 180 186 201 192 205 208 206 215 203 205 207 213 213 216 205 199 195 196 222 221 192 207 202 219 231 265 297 306 345 24 38
61 24 79 335 348 19 241 331 318 251 172 240 286 251 258 305 325 256 162 215 262 264 248 244 240 238 255 286 280 245 244 235 245 242 230 215 206 209 206 198 181 219 226 232 216 212 214 228 222 219 222 214 214 199 199 195 159 167 161 139 177 201 205 218 214 217 204 200 209 195 207 201 208 212 204 203 208 206 202 210 213 198 197 193 207 214 208 194 187 208 212 243 289 321 328 348 32
104 80 4 9 37 276 288 291 309 284 200 48 2 329 338 39 273 268 319 333 307 187 274 253 230 215 211 239 243 234 234 236 242 245 234 207 206 187 191 200 211 219 229 217 210 229 235 231 221 210 219 214 207 197 192 186 191 190 179 190 198 204 217 201 216 222 191 197 202 140 141 183 195 198 200 192 204 201 197 198 201 202 194 193 199 208 192 169 188 189 189 247 207 283 313 316 352
308 83 132 124 274 268 274 320 322 323 327 35 331 332 301 135 298 311 337 321 303 273 230 257 234 221 214 229 229 222 222 226 228 245 249 236 223 216 217 212 207 212 208 153 193 221 224 243 221 210 211 202 184 181 179 186 194 203 203 209 215 213 226 210 160 120 171 143 135 166 165 173 198 202 190 199 189 197 192 184 189 202 195 190 187 194 188 195 161 174 149 216 165 183 271 309 348
15 64 122 109 218 256 311 314 56 291 257 269 359 2 295 309 305 37 326 305 297 305 276 242 237 226 225 227 228 226 222 219 216 226 230 229 222 213 219 205 199 199 162 166 194 202 208 211 199 194 202 206 178 183 181 196 197 201 204 214 219 225 222 208 155 153 131 136 169 173 184 181 173 203 189 182 187 186 183 176 181 187 186 183 185 190 180 164 147 144 163 132 184 210 238 300 334
27 149 191 356 278 287 217 276 321 20 308 250 117 346 258 241 267 154 335 314 336 334 332 313 261 236 226 231 230 227 225 218 211 225 228 220 219 217 215 201 177 158 165 185 191 185 186 183 179 169 187 191 180 189 192 198 211 203 204 206 215 219 209 190 144 151 164 173 186 165 187 166 162 157 180 166 174 177 178 171 171 180 178 172 187 169 147 144 154 151 163 171 183 170 208 254 250
98 119 113 106 231 237 266 278 273 169 280 280 46 351 307 299 257 311 123 225 297 330 329 317 311 282 251 242 240 236 230 223 221 234 244 245 243 243 218 192 166 176 166 174 175 188 194 185 182 184 182 195 180 189 197 198 204 206 208 210 210 202 185 173 183 176 185 176 182 174 170 175 165 161 151 157 158 164 164 160 168 171 170 167 175 142 138 147 148 153 158 163 158 181 179 203 244
85 129 213 206 217 221 198 26 296 249 236 87 24 346 321 311 302 302 331 8 328 323 315 301 243 244 262 247 254 259 245 227 223 226 237 247 270 280 231 206 184 161 169 186 193 198 192 194 187 194 188 189 188 195 196 196 197 202 212 212 208 204 183 178 177 182 180 177 182 178 177 169 166 159 155 149 147 153 153 162 163 162 156 161 151 152 160 151 150 151 152 158 174 190 187 181 208
269 256 287 244 181 191 183 148 232 274 266 95 354 350 309 280 294 256 209 250 214 284 294 297 304 305 301 305 287 256 264 282 286 252 246 226 238 231 217 207 190 185 181 199 201 197 199 199 193 198 192 199 194 194 195 197 194 202 216 213 210 208 185 185 193 187 182 183 183 175 170 163 166 159 164 155 159 158 161 154 148 149 158 156 159 155 146 149 148 151 162 179 164 186 176 199 201
218 284 254 296 322 330 243 155 262 141 318 115 42 292 266 216 239 281 295 293 292 208 249 280 295 299 305 310 317 318 304 266 259 256 250 219 212 205 204 205 188 195 201 202 201 199 200 200 198 202 202 191 198 194 202 195 195 201 203 207 215 205 198 197 197 191 179 183 178 175 173 180 166 172 174 168 157 165 162 153 159 161 156 161 149 148 144 151 153 160 157 168 170 182 181 204 207
271 252 331 317 342 40 279 303 223 281 143 14 117 14 257 283 277 260 258 275 298 302 278 273 273 277 288 301 311 302 292 281 264 246 244 234 212 210 209 204 202 201 202 202 203 203 202 201 201 208 206 185 189 196 202 198 204 204 200 203 204 199 201 198 198 191 180 183 177 177 183 182 179 178 166 167 152 163 166 154 153 146 139 141 148 143 146 150 163 157 163 166 168 175 165 194 201
41 348 299 0 168 323 316 280 296 320 317 44 38 292 254 343 5 219 244 288 291 283 277 273 273 274 276 286 286 278 275 260 236 245 237 229 220 209 207 208 209 208 203 202 203 207 205 208 200 207 204 188 193 198 196 207 203 200 201 204 197 197 199 195 197 190 176 175 174 174 180 177 178 163 162 140 147 155 144 146 147 144 145 145 146 146 148 154 162 162 158 158 169 161 174 200 191
136 317 292 234 145 348 266 25 289 319 337 291 167 241 296 246 327 296 321 298 278 290 273 289 283 275 278 283 276 283 287 286 258 253 249 241 235 219 211 210 212 210 207 204 205 203 206 212 205 207 207 190 192 192 200 207 206 197 199 196 194 191 191 192 181 175 170 173 170 175 170 172 164 151 134 138 147 148 148 146 147 141 143 145 148 151 157 158 166 170 161 165 161 163 187 197 207
93 183 203 20 352 275 111 134 90 178 202 240 88 280 250 264 252 282 314 302 254 208 265 312 333 346 310 284 297 297 291 287 280 259 254 253 235 231 229 221 212 208 206 206 205 201 202 202 201 205 202 189 194 194 197 201 201 199 196 192 181 181 184 187 181 174 167 162 165 166 163 157 144 148 140 142 145 149 150 151 145 145 147 146 148 153 157 155 164 171 171 163 173 166 200 192 223
16 226 111 122 294 323 267 301 151 254 296 285 88 288 304 14 342 65 340 354 338 353 7 345 325 1 349 351 339 322 308 296 286 278 272 267 261 251 237 234 231 224 215 211 212 202 201 202 198 200 196 198 199 194 194 193 197 203 189 188 182 181 179 178 170 165 164 165 166 157 148 152 162 148 142 146 149 148 144 151 147 148 149 151 150 150 155 157 168 165 159 176 149 173 200 201 200
323 359 14 272 184 175 88 254 276 293 266 299 291 297 257 217 264 320 312 347 331 335 343 348 5 358 357 346 351 335 304 291 281 274 265 254 247 243 240 245 244 246 241 234 225 202 200 205 204 206 203 201 194 191 191 188 200 196 193 188 179 174 173 168 165 163 166 171 168 165 162 158 143 148 152 156 155 152 154 153 152 152 154 152 152 151 155 161 175 163 174 171 167 196 218 222 207
167 280 219 349 288 313 175 214 345 79 281 343 295 33 291 179 236 232 287 296 320 325 327 346 342 343 335 336 328 330 319 299 299 288 274 266 265 255 246 237 230 225 232 235 231 217 211 205 198 206 199 187 187 191 190 194 194 195 188 180 178 174 171 171 168 169 176 176 170 165 158 152 159 160 162 162 158 158 157 158 158 157 155 155 154 155 165 161 179 173 181 180 154 192 213 226 215
160 214 214 160 16 331 322 293 226 259 280 251 304 315 276 184 193 206 270 291 317 325 304 313 317 314 312 297 302 309 300 294 290 286 290 285 278 270 256 246 242 236 221 219 218 219 215 198 201 197 197 195 199 196 191 196 181 191 184 188 178 177 174 172 171 179 179 173 165 164 161 159 154 168 163 166 161 159 161 160 160 162 163 162 160 161 164 169 178 168 172 155 167 202 227 239 244
254 208 197 184 151 170 198 235 96 331 226 232 179 255 278 279 119 219 261 306 309 329 308 300 304 304 302 298 294 288 299 293 286 289 288 286 282 277 268 244 238 238 235 226 216 211 213 209 199 192 200 200 197 194 194 189 185 184 189 186 179 175 174 173 175 177 181 170 166 168 161 155 167 165 170 166 161 158 162 163 163 166 165 162 162 161 164 173 173 170 172 172 201 217 237 245 252